Regional Weather Roundup
Issued by NWS

Home | Current Version | Previous Version | Text Only | Print | Product List | Glossary Off
Versions: 1 2 3 4 5 6 7 8 9 10 11 12 13 14 15 16 17 18 19 20 21 22 23 24 25 26 27

000
ASUS45 KPSR 280010
RWRAZ

ARIZONA HOURLY REGIONAL WEATHER ROUNDUP
NATIONAL WEATHER SERVICE PHOENIX AZ
500 PM MST THU APR 27 2017

NOTE: FAIR INDICATES FEW OR NO CLOUDS BELOW 12,000 FEET WITH NO
SIGNIFICANT WEATHER AND/OR OBSTRUCTIONS TO VISIBILITY.

AZZ001>003-036-280100-
NORTHWEST ARIZONA

CITY           SKY/WX    TMP DP  RH WIND       PRES   REMARKS
BULLHEAD CITY  SUNNY     91  25   9 N6        29.55S
KINGMAN        SUNNY     78  27  15 NW13G18   29.71F
6HR MIN TEMP:  74; 6HR MAX TEMP:  80;

$$

AZZ004>008-015-016-018-280100-
NORTH CENTRAL ARIZONA

CITY           SKY/WX    TMP DP  RH WIND       PRES   REMARKS
GRAND CANYON   MOSUNNY   59  24  26 W17G32    29.78S
6HR MIN TEMP:  57; 6HR MAX TEMP:  62;

WILLIAMS       MOSUNNY   59  21  23 W20G33    29.82R
PRESCOTT       CLOUDY    70  31  23 W20       29.76S
6HR MIN TEMP:  68; 6HR MAX TEMP:  75;

FLAGSTAFF      MOSUNNY   60  16  18 W21G37    29.77S
6HR MIN TEMP:  59; 6HR MAX TEMP:  64;

PAYSON         CLOUDY    68  32  26 SW15G23   29.78S
PAGE           MOSUNNY   70  21  15 W14G28    29.63F
6HR MIN TEMP:  65; 6HR MAX TEMP:  71;

$$

AZZ009>014-017-280100-
NORTHEAST ARIZONA

CITY           SKY/WX    TMP DP  RH WIND       PRES   REMARKS
WINSLOW        PTSUNNY   76  28  17 W32G40    29.65S
6HR MIN TEMP:  73; 6HR MAX TEMP:  78;

SAINT JOHNS    CLOUDY    69  29  22 W29G38    29.67R
6HR MIN TEMP:  68; 6HR MAX TEMP:  76;

WINDOW ROCK    CLOUDY    62  19  19 W24G37    29.69S
6HR MIN TEMP:  60; 6HR MAX TEMP:  68;

SHOW LOW       CLOUDY    61  27  27 SW25G36   29.79R
$$

AZZ540-542>544-546-548-280100-
GREATER PHOENIX AREA

CITY           SKY/WX    TMP DP  RH WIND       PRES   REMARKS
PHOENIX        CLOUDY    88  38  17 SW16G22   29.54F
6HR MIN TEMP:  80; 6HR MAX TEMP:  90;

BUCKEYE        CLOUDY    91  32  12 W17       29.56F
GLENDALE       PTSUNNY   90  39  17 S14G20    29.56F
LUKE AFB       CLOUDY    90  40  17 SW15      29.54F
6HR MIN TEMP:  82; 6HR MAX TEMP:  90; 6HR PCP: TRACE;

DEER VALLEY    CLOUDY    87  38  17 S15       29.56F
6HR MIN TEMP:  79; 6HR MAX TEMP:  87;

SCOTTSDALE     CLOUDY    87  36  16 SW9G17    29.59F
6HR MIN TEMP:  80; 6HR MAX TEMP:  87;

MESA-FALCON    CLOUDY   N/A N/A N/A SW12      29.58F
MESA-GATEWAY   PTSUNNY   86  39  19 W15       29.60S
CHANDLER       SUNNY     88  36  15 SW12      29.58F
$$

AZZ539-553-280100-
SOUTHWEST MARICOPA COUNTY AND PINAL COUNTY

CITY           SKY/WX    TMP DP  RH WIND       PRES   REMARKS
CASA GRANDE    PTSUNNY   88  41  19 W16G22    29.59F
6HR MIN TEMP:  80; 6HR MAX TEMP:  90;

GILA BEND      PTSUNNY   91  33  13 W16       29.56F
6HR MIN TEMP:  83; 6HR MAX TEMP:  92;

$$

AZZ503-504-507>509-280100-
SOUTHEAST ARIZONA

CITY           SKY/WX    TMP DP  RH WIND       PRES   REMARKS
TUCSON         MOSUNNY   87  32  14 W18       29.68S
6HR MIN TEMP:  82; 6HR MAX TEMP:  90;

DAVIS-MONTHAN  MOSUNNY   87  33  14 W18G25    29.67S
6HR MIN TEMP:  82; 6HR MAX TEMP:  89;

RYAN FIELD     SUNNY     88  32  13 W23       29.67S
NOGALES        SUNNY     83  33  16 SW15G25   29.76S
6HR MIN TEMP:  79; 6HR MAX TEMP:  86;

SIERRA VISTA   SUNNY     79  32  18 SW21G29   29.79S
6HR MIN TEMP:  76; 6HR MAX TEMP:  82;

DOUGLAS        SUNNY     84  36  18 W23G33    29.74R
6HR MIN TEMP:  76; 6HR MAX TEMP:  86;

SAFFORD        PTSUNNY   83  33  16 NW26G38   29.60R
6HR MIN TEMP:  80; 6HR MAX TEMP:  90;

$$

AZZ532-280100-
SOUTHWEST ARIZONA

CITY           SKY/WX    TMP DP  RH WIND       PRES   REMARKS
YUMA           PTSUNNY   91  36  14 VRB3      29.56F
6HR MIN TEMP:  84; 6HR MAX TEMP:  93;

$$

CAZ041-043-047-048-061-525>527-560>570-280100-
SOUTHERN CALIFORNIA

CITY           SKY/WX    TMP DP  RH WIND       PRES   REMARKS
DOWNTOWN L.A.  MOSUNNY   84  37  18 NW9G18    29.71F
6HR MIN TEMP:  76; 6HR MAX TEMP:  84;

L.A. AIRPORT   MOSUNNY   72  54  53 W13       29.74F
6HR MIN TEMP:  65; 6HR MAX TEMP:  72;

SAN DIEGO      PTSUNNY   67  58  72 NW9       29.79S
6HR MIN TEMP:  65; 6HR MAX TEMP:  69;

BURBANK        SUNNY     80  31  16 N20G33    29.75S
6HR MIN TEMP:  75; 6HR MAX TEMP:  83;

ONTARIO        PTSUNNY   75  49  39 SW12      29.73F
6HR MIN TEMP:  68; 6HR MAX TEMP:  78;

RIVERSIDE      MOSUNNY   76  49  38 W10G16    29.73F
6HR MIN TEMP:  69; 6HR MAX TEMP:  78;

PALM SPRINGS   CLOUDY    88  46  23 NW16G26   29.59F
6HR MIN TEMP:  85; 6HR MAX TEMP:  93;

EL CENTRO NAS  PTSUNNY   92  34  13 NE6       29.57F
6HR MIN TEMP:  86; 6HR MAX TEMP:  94;

IMPERIAL       PTSUNNY   92  38  15 N6        29.55F
6HR MIN TEMP:  84; 6HR MAX TEMP:  94;

BLYTHE         CLOUDY    92  36  14 W8        29.56S
6HR MIN TEMP:  86; 6HR MAX TEMP:  94;

NEEDLES        MOSUNNY   93  27   9 SE8       29.56F
6HR MIN TEMP:  86; 6HR MAX TEMP:  93;

$$

NVZ020-UTZ003-280100-
SOUTHERN NEVADA-UTAH

CITY           SKY/WX    TMP DP  RH WIND       PRES   REMARKS
LAS VEGAS      PTSUNNY   84  17   8 NW13G28   29.61F
6HR MIN TEMP:  77; 6HR MAX TEMP:  86;

SALT LAKE CITY PTSUNNY   50  24  36 NW17      29.82S
6HR MIN TEMP:  47; 6HR MAX TEMP:  52;

$$

NMZ009-TXZ055-280100-
NEW MEXICO-WEST TEXAS

CITY           SKY/WX    TMP DP  RH WIND       PRES   REMARKS
ALBUQUERQUE    CLOUDY    66  34  30 N21       29.59R
6HR MIN TEMP:  65; 6HR MAX TEMP:  74;

EL PASO        MOSUNNY   87  30  13 SW33G43   29.57F
6HR MIN TEMP:  79; 6HR MAX TEMP:  88;

$$


........................KEY........................
SKY/WX - SKY CONDITION/WEATHER
TMP    - TEMPERATURE IN FAHRENHEIT
DP     - DEW POINT IN FAHRENHEIT
RH     - RELATIVE HUMIDITY IN PERCENT
WIND   - DIRECTION AND SPEED IN MILES PER HOUR (MPH)
VRB    - VARIABLE WIND DIRECTION
PRES   - MEAN SEA LEVEL PRESSURE IN INCHES OF MERCURY
         F - FALLING PRESSURE   R - RISING PRESSURE
         S - STEADY PRESSURE
VSB    - VISIBILITY IN MILES
HX     - HEAT INDEX IN FAHRENHEIT
WCI    - WIND CHILL INDEX IN FAHRENHEIT
TC     - TEMPERATURE IN CELSIUS WHICH IS ALSO KNOWN AS
         TEMPERATURE IN CENTIGRADE
AFB    - AIR FORCE BASE
         LUKE AFB IS LUKE AIR FORCE BASE
         DAVIS-MONTHAN IS DAVIS-MONTHAN AIR FORCE BASE
NAS    - NAVAL AIR STATION
         EL CENTRO NAS IS EL CENTRO NAVAL AIR STATION
N/A    - NOT AVAILABLE





USA.gov is the U.S. government's official web portal to all federal, state and local government web resources and services.